Location: Bois de la Silve
(44.4667°N, 6.7833°E)
Time: 08:27:06
(UTC+00:00)

Cosmos 1500 - Pass Details

Date: 14 July 2020
Orbit: 498 x 520 km, 82.5° (Epoch: 14 August)

Event Time Altitude Azimuth Distance (km) Brightness Sun altitude
Exits shadow 00:58:34 40° 117° (ESE) 760 3.9 -21.4°
Maximum altitude 00:59:05 43° 94° (E) 726 4.0 -21.4°
Drops below altitude 10° 01:02:43 10° 22° (NNE) 1,736 7.0 -21.2°
Sets 01:04:54 0° 15° (NNE) 2,623 8.3 -21.0°
